Temperature
12 12 13 14 17 18 19 20 19 18 18 18 17 18 20 21 21 21 16 16 16 16 16 16 16 16 16 17 17 17 17 17 17 17 17 17 17 17 17 17 16 16 16 16 16 16 16 16 16
12 12 13 15 17 18 19 19 18 18 17 16 16 17 18 19 18 17 15 16 16 16 16 16 16 16 16 16 16 17 17 17 17 17 17 17 16 16 16 16 16 16 16 16 16 16 16 16 16
11 12 14 16 16 18 19 17 17 16 15 15 17 17 17 18 16 15 15 15 16 16 16 16 16 16 16 16 16 16 16 17 17 16 16 16 16 16 16 16 16 16 16 16 16 16 16 16 16
11 12 13 15 16 17 17 16 16 16 15 15 16 17 16 15 14 14 15 15 15 15 15 16 16 16 16 16 16 16 16 16 16 16 16 16 16 16 16 16 16 16 16 16 16 16 16 16 16
11 13 15 15 16 16 15 15 14 16 16 15 15 16 16 14 14 14 15 15 15 15 15 15 16 16 16 16 16 16 16 16 16 16 16 16 16 16 16 16 16 16 16 16 16 16 16 16 16
12 13 15 15 15 15 15 14 14 15 15 15 15 15 15 14 13 14 14 15 15 15 15 15 15 15 15 16 16 16 16 16 16 16 16 16 16 16 16 16 16 16 16 16 16 16 16 16 16
12 13 14 15 14 14 14 13 14 14 15 14 14 15 15 13 13 13 13 14 14 14 15 15 15 15 15 15 16 16 16 16 16 16 16 16 16 16 16 16 16 16 16 16 16 16 15 15 15
11 13 13 13 13 14 13 12 12 13 14 13 13 14 14 13 13 13 13 13 14 14 14 14 15 15 15 15 15 15 15 15 15 15 15 15 15 15 15 15 15 15 15 15 15 15 15 15 15
10 12 13 13 13 13 12 12 12 11 12 12 12 12 12 12 12 12 12 13 13 13 14 14 14 14 15 15 15 15 15 15 15 15 15 15 15 15 15 15 15 15 15 15 15 15 15 15 15
10 12 13 12 12 12 12 12 11 12 12 12 12 11 11 11 11 11 12 12 12 13 13 14 14 14 14 14 15 15 15 15 15 14 15 14 14 15 15 15 15 15 15 15 15 15 15 15 15
10 11 11 11 10 11 11 11 11 11 12 12 12 11 11 11 11 11 11 11 12 12 13 13 13 14 14 14 14 14 14 14 14 14 14 14 14 14 14 14 14 14 14 14 14 14 14 14 14
10 10 10 10 9 10 10 10 10 10 11 11 10 10 10 10 10 10 10 11 11 12 12 13 13 13 14 14 14 14 14 14 14 14 14 14 14 14 14 14 14 14 14 14 14 14 14 14 14
10 10 9 9 9 9 9 10 10 10 10 9 9 9 9 10 10 10 10 10 11 12 12 12 13 13 13 13 14 14 14 14 14 14 14 14 14 14 14 14 14 14 14 14 14 14 14 14 14
10 9 9 9 9 9 9 10 9 10 9 9 9 9 9 9 9 9 9 10 10 11 11 12 12 13 13 13 13 13 13 14 14 14 14 14 14 14 14 14 14 14 14 14 14 14 14 14 14
8 9 10 10 9 9 9 10 10 9 9 9 9 9 9 8 9 9 9 9 10 10 11 11 12 12 13 13 13 13 13 13 13 13 13 14 14 14 14 14 14 14 14 14 13 13 13 13 14
9 10 10 10 9 9 9 10 11 9 9 9 9 8 8 8 8 8 9 9 9 10 11 11 11 12 12 12 12 12 13 13 13 13 13 13 13 13 13 13 13 13 13 13 13 13 13 13 13
10 10 10 10 9 9 9 10 10 9 8 8 8 8 8 8 8 8 8 8 9 10 10 10 11 11 12 12 12 12 12 12 12 12 13 13 13 13 13 13 13 13 13 13 13 13 13 13 13
10 10 10 10 9 9 9 9 10 9 8 8 8 8 8 7 7 8 8 8 9 9 9 10 10 10 11 11 11 11 12 12 12 12 12 13 13 13 13 13 13 13 13 13 13 13 13 13 13
9 9 9 9 9 9 9 9 10 9 8 8 8 8 7 7 7 7 7 8 8 8 9 9 10 10 10 11 11 11 11 11 12 12 12 12 12 12 12 12 12 12 12 13 13 12 12 12 12
8 8 9 9 9 9 9 9 10 9 9 8 8 7 7 7 7 7 7 7 8 8 8 9 9 9 10 10 10 10 11 11 11 11 11 12 12 12 12 12 12 12 12 12 12 12 12 12 12
8 8 9 8 9 9 9 10 10 10 9 8 8 7 7 7 7 7 7 7 7 8 8 8 8 9 9 9 10 10 10 10 10 11 11 11 11 11 12 12 12 12 12 12 12 12 12 11 12
8 9 8 8 8 9 9 10 11 10 10 9 8 7 7 6 6 6 6 6 7 7 7 8 8 8 9 9 9 9 9 10 10 10 11 11 11 11 11 11 11 11 11 11 11 11 11 11 11
8 8 8 8 8 8 9 9 11 10 9 9 8 7 7 6 6 6 6 6 6 7 7 7 8 8 8 8 9 9 9 9 10 10 10 11 11 11 11 11 11 11 11 11 11 11 11 11 11
7 7 7 7 8 9 9 9 11 10 9 8 8 7 6 6 6 6 5 6 6 6 6 7 7 7 8 8 8 9 9 9 9 9 10 10 10 10 10 10 11 10 10 11 11 11 11 11 11
7 8 9 9 9 10 9 9 10 10 8 8 7 7 6 6 5 5 5 5 5 6 6 6 7 7 7 7 8 8 8 8 9 9 9 10 10 10 10 10 10 10 10 10 10 10 10 10 10
7 8 9 10 11 11 9 9 11 9 8 7 6 6 6 5 5 5 5 5 5 5 5 6 6 6 7 7 7 8 8 8 8 8 9 9 9 9 9 9 9 10 10 10 10 10 10 10 10
7 8 7 8 8 9 10 10 10 8 8 7 7 6 5 5 5 4 4 4 4 5 5 5 6 6 6 6 7 7 8 8 8 8 8 8 8 8 9 9 9 9 9 9 9 9 9 9 9
7 7 7 8 9 10 11 11 10 9 8 7 7 6 5 4 4 4 4 4 4 4 4 5 5 6 6 6 6 6 7 7 7 8 8 8 8 8 8 8 9 9 9 9 9 9 9 9 9
7 7 7 7 8 9 11 11 9 9 8 7 7 6 5 4 4 4 4 4 4 4 4 4 5 5 5 6 6 6 7 7 7 7 7 8 8 8 8 8 8 8 8 8 8 8 8 8 8
7 7 7 8 8 8 9 10 8 8 7 7 6 5 4 4 3 3 3 4 4 4 4 4 4 5 5 5 6 6 6 6 7 7 7 7 7 7 7 7 7 7 7 7 7 8 8 8 8
Wind_Speed
5 4 1 3 5 6 12 9 6 6 5 4 4 6 7 8 6 1 4 6 6 2 3 8 10 13 15 16 16 18 19 20 20 20 20 19 19 18 18 17 17 16 16 17 16 16 16 17 17
4 2 3 4 6 9 9 8 10 7 2 2 4 6 7 7 3 3 4 7 6 1 2 7 9 11 14 16 16 17 19 20 20 20 20 20 19 19 18 17 17 17 17 16 17 17 17 17 16
1 1 4 5 7 9 6 4 6 5 3 3 4 5 6 5 3 3 6 7 5 1 2 5 8 10 12 15 16 17 18 20 20 20 20 20 19 19 18 18 17 17 17 17 17 17 17 16 16
1 3 3 6 11 8 5 2 2 4 4 4 5 5 3 1 3 5 8 7 4 1 2 4 7 9 11 12 16 17 17 19 20 20 20 20 19 19 18 18 17 17 17 17 17 17 16 15 15
1 3 5 7 10 6 5 4 4 5 5 4 5 6 6 3 4 6 7 7 4 3 3 4 7 9 11 11 13 16 17 18 19 20 20 20 19 19 18 18 18 18 18 18 17 16 16 15 14
3 3 6 9 9 6 6 6 6 8 7 6 7 8 7 3 4 7 8 7 5 4 4 4 7 9 10 12 12 16 18 18 19 19 20 20 19 19 18 18 18 19 18 18 17 16 15 15 14
4 4 5 6 7 6 5 5 7 8 9 7 6 7 6 5 5 8 9 7 6 4 4 4 6 9 11 12 12 15 17 18 19 19 19 19 19 19 18 19 19 19 18 18 17 16 16 15 14
2 3 4 5 6 5 2 3 5 7 8 6 5 7 7 5 8 9 9 8 6 5 4 4 5 7 9 11 13 15 16 17 17 19 19 18 17 18 19 19 19 19 19 18 17 16 16 15 14
3 4 6 5 5 3 2 4 4 5 7 8 8 10 11 12 12 10 9 8 7 6 5 4 5 6 8 9 12 15 15 16 17 18 17 18 17 17 18 19 19 19 18 18 17 16 15 14 13
5 5 5 3 4 4 5 6 7 6 9 10 10 11 11 11 10 10 10 10 9 8 6 5 5 5 6 7 9 12 14 15 16 16 18 17 16 15 16 18 19 19 18 17 16 15 15 13 11
4 5 3 4 5 6 7 8 7 9 11 11 11 12 10 10 9 10 10 10 10 9 8 6 6 5 5 5 7 8 10 12 14 16 17 16 14 13 13 14 15 16 17 16 15 15 13 12 10
4 4 5 4 4 6 8 7 7 10 12 12 11 11 11 11 10 10 11 11 10 9 9 7 7 6 6 5 6 7 7 9 9 13 17 14 10 10 11 11 13 14 14 13 13 12 13 12 11
5 4 4 6 7 8 9 10 10 12 13 12 11 11 12 11 11 10 10 11 11 10 9 9 7 7 6 5 5 7 7 8 10 11 14 15 10 11 10 10 12 13 13 13 12 11 12 11 11
3 5 6 7 7 6 7 9 8 10 10 9 9 10 10 10 11 10 10 10 10 10 9 8 8 7 6 5 6 6 7 8 9 9 12 15 12 10 10 10 10 11 12 12 12 12 10 9 9
3 4 5 4 4 3 5 7 6 9 9 9 9 8 9 9 9 10 10 10 10 9 8 8 7 7 7 7 7 6 7 8 8 9 11 13 13 12 11 10 10 11 13 13 11 11 10 8 8
3 3 3 0 2 2 4 7 6 7 8 8 8 8 7 8 9 9 9 9 9 9 8 6 6 6 6 6 6 6 7 7 8 9 10 12 13 13 11 10 10 12 12 11 9 10 10 9 9
3 3 3 2 1 2 3 8 8 8 8 8 8 8 8 9 9 8 8 8 8 8 7 6 6 6 6 6 6 6 6 7 7 8 9 11 13 14 11 9 10 11 10 10 10 10 10 10 9
2 3 3 3 2 4 6 9 10 9 8 8 8 8 7 7 8 8 8 8 7 6 6 5 5 5 5 5 5 5 6 6 6 7 8 11 12 13 11 9 11 11 9 10 10 11 10 9 9
2 3 5 5 4 5 7 10 10 8 6 6 7 7 7 8 7 7 7 7 6 5 4 4 5 5 4 4 5 6 7 6 6 7 7 10 12 13 11 9 10 10 10 11 12 11 11 10 8
3 4 4 4 3 4 7 10 7 4 4 6 7 8 9 9 9 8 8 7 6 5 5 5 5 5 5 5 6 6 6 6 6 5 6 9 11 11 11 11 10 11 10 12 12 10 9 8 9
5 5 4 5 7 3 6 5 1 2 3 6 8 8 9 9 9 9 9 7 6 5 5 5 6 6 5 6 5 5 5 5 5 6 6 8 10 11 10 11 11 11 11 11 12 12 13 10 10
4 3 4 5 5 2 4 3 2 4 5 7 9 9 9 9 9 9 8 7 6 6 5 5 5 5 5 5 6 7 7 7 7 6 6 7 9 10 11 11 12 11 10 11 12 12 11 12 11
2 3 4 4 3 4 2 3 3 3 6 8 9 9 9 9 9 8 8 7 6 6 5 5 5 4 4 4 6 7 7 6 5 6 7 8 8 9 10 11 11 12 11 12 12 12 12 11 11
2 2 1 2 2 3 2 3 3 2 6 8 9 9 10 9 9 8 8 7 7 7 6 5 5 5 4 3 4 6 7 7 7 7 7 7 7 7 10 11 11 12 11 12 12 13 14 12 13
1 1 1 2 2 2 0 3 3 3 5 6 8 9 9 9 9 9 10 9 8 8 7 6 5 5 5 3 3 4 6 7 8 8 8 8 7 7 9 10 10 11 11 12 12 12 12 13 13
1 1 1 2 2 1 2 3 1 3 4 5 6 7 8 9 9 10 10 9 8 8 8 7 6 6 6 4 3 2 3 4 5 6 6 7 7 8 9 10 11 12 12 12 12 11 12 11 13
1 1 1 1 1 3 3 3 2 3 4 5 5 6 8 9 9 10 10 9 9 9 9 8 7 7 6 5 4 3 2 3 4 4 5 5 6 6 8 9 10 11 11 12 11 10 13 13 13
1 1 1 2 2 2 3 3 2 3 4 4 5 6 8 8 9 10 10 9 9 9 8 8 8 7 6 6 4 3 3 3 4 3 4 5 6 6 7 8 9 10 10 11 11 11 13 13 13
2 1 1 1 2 3 3 1 2 1 2 3 4 5 6 8 8 9 9 9 8 9 9 9 8 8 7 5 5 4 4 4 4 4 4 5 5 6 7 7 9 10 10 11 11 12 12 14 14
2 2 2 2 2 3 3 2 3 2 2 3 4 5 6 6 7 8 8 9 9 9 9 9 9 8 8 6 6 5 5 4 3 3 4 4 6 6 6 7 8 8 9 10 11 12 12 13 14
Wind_Direction
342 331 251 191 197 222 235 224 215 206 208 219 244 244 243 238 236 203 34 5 348 326 181 170 174 173 171 167 164 165 164 164 164 164 163 163 161 159 158 157 156 153 148 143 139 134 129 123 120
344 317 190 194 220 227 233 224 218 213 211 261 243 240 242 240 264 342 1 352 339 326 177 175 169 174 175 172 168 167 167 167 167 168 167 166 164 163 162 162 159 154 149 145 140 135 130 126 124
355 339 191 196 221 234 235 202 219 210 238 252 238 243 249 250 275 323 349 334 332 324 189 174 169 176 177 177 173 171 172 171 170 171 170 170 168 168 167 165 161 155 149 143 139 136 134 131 129
193 164 191 223 229 237 257 217 222 231 235 245 251 246 236 276 316 333 337 332 323 291 218 181 178 183 177 177 178 178 177 177 174 173 173 172 172 171 170 166 160 155 149 146 144 142 140 137 136
167 184 203 228 238 239 245 255 263 252 246 245 254 255 256 260 314 334 341 333 318 284 248 199 188 187 184 178 181 181 180 181 179 177 177 175 175 174 171 166 160 156 153 151 150 147 146 144 142
163 194 219 235 235 243 247 252 259 258 257 260 263 260 261 268 314 331 334 328 313 292 268 228 196 192 187 186 185 186 185 183 182 181 180 178 177 175 171 167 163 160 159 157 155 153 151 149 146
190 202 234 245 247 249 248 249 251 259 259 262 268 263 254 264 318 323 322 318 311 297 273 251 217 202 193 190 191 193 189 187 186 184 182 181 178 174 171 169 167 165 163 162 160 159 157 155 151
196 204 225 234 243 250 253 258 267 266 268 281 264 253 252 287 315 316 314 307 302 292 284 264 239 218 208 201 194 194 192 190 189 187 183 179 176 174 171 171 170 168 166 165 165 164 162 158 155
185 217 231 231 241 251 253 267 278 281 267 267 259 263 276 295 303 305 306 304 298 292 290 276 256 232 216 210 200 195 195 194 191 189 182 179 184 182 178 180 172 170 169 168 168 167 163 158 158
197 226 238 243 252 266 273 277 284 272 266 265 261 265 276 286 292 296 297 297 298 292 290 283 267 250 227 215 205 201 199 198 199 196 189 189 189 188 185 177 173 171 171 171 171 168 165 170 170
203 233 245 253 263 273 276 279 277 269 268 271 277 283 289 290 292 291 289 287 286 285 284 281 270 261 241 224 213 205 200 199 202 201 193 191 189 186 183 177 177 177 175 178 175 175 182 188 181
211 239 250 265 275 272 275 279 277 266 273 289 287 287 289 288 287 288 287 285 284 283 280 276 272 257 241 228 222 210 201 198 199 200 195 191 189 187 185 184 185 185 186 186 185 192 191 194 191
221 248 262 269 275 274 272 270 277 277 284 291 290 287 282 281 283 284 282 283 283 282 279 276 270 257 240 227 225 217 206 201 199 199 198 194 191 190 189 190 190 191 190 189 192 195 193 195 195
235 261 278 283 279 278 275 279 275 285 298 294 289 284 285 283 284 287 287 284 283 279 276 273 269 251 235 227 221 220 212 202 199 198 200 197 196 193 192 193 193 195 194 194 195 195 194 195 196
241 266 272 271 276 283 283 278 271 295 306 301 299 296 293 290 287 282 283 282 281 280 275 268 267 250 230 225 222 218 215 205 198 198 201 201 198 197 196 196 195 196 196 195 196 195 194 194 195
221 240 256 326 302 292 278 286 312 323 320 312 309 307 302 301 296 290 291 288 287 284 279 270 265 251 233 224 223 217 213 210 204 200 201 205 201 199 199 199 199 197 195 194 195 194 194 196 198
213 249 269 302 333 302 278 286 308 325 323 318 316 315 313 312 309 303 299 294 291 285 278 275 265 248 233 224 223 218 212 214 213 206 202 204 203 201 200 201 201 196 195 196 196 197 197 198 199
233 260 274 288 329 309 284 288 305 319 320 319 323 321 314 309 307 309 312 308 302 292 282 279 267 255 242 227 219 213 212 214 216 212 206 204 205 203 203 205 202 197 195 196 197 198 199 200 199
246 260 283 295 304 297 287 294 305 320 327 331 329 328 327 325 323 326 327 327 323 313 297 280 274 260 243 225 214 207 209 210 215 215 212 210 205 203 205 207 204 200 200 201 200 199 199 199 193
228 258 282 301 312 296 298 295 301 327 336 338 336 337 337 334 334 331 329 329 326 325 313 289 271 261 243 228 221 215 213 211 213 213 213 211 207 204 205 206 205 203 202 203 202 198 200 199 193
241 245 276 299 312 277 302 286 277 355 354 355 349 341 339 339 336 333 335 333 326 329 320 305 288 268 253 236 221 215 211 210 215 214 213 211 208 206 206 210 209 207 205 204 204 202 203 201 199
254 249 265 283 299 305 321 297 298 342 346 356 352 348 346 343 339 337 336 337 337 334 329 318 307 284 265 243 219 214 212 213 217 217 215 212 209 210 210 213 212 211 210 210 207 205 208 205 205
249 295 271 269 271 281 271 269 294 350 334 340 344 346 347 343 342 340 339 340 341 340 339 334 323 319 296 261 227 219 220 222 218 220 217 212 210 214 214 213 213 212 213 214 213 211 212 211 211
232 264 233 220 239 261 260 253 297 349 326 328 334 342 345 344 346 347 350 352 355 357 353 348 348 340 322 293 249 224 218 218 217 222 222 213 213 217 217 218 216 216 216 216 217 216 216 216 217
224 256 223 211 226 259 157 251 276 349 341 325 327 337 342 347 351 353 356 359 1 359 357 355 353 346 337 326 292 243 226 222 223 227 227 216 214 219 218 218 220 219 220 220 219 219 220 221 222
225 276 310 292 286 302 229 253 292 8 339 330 331 340 348 354 356 356 358 358 358 358 358 359 356 351 343 334 315 290 253 236 233 232 235 225 221 224 224 223 224 223 221 221 221 220 222 223 225
184 194 342 292 284 269 257 265 269 1 344 341 341 349 355 357 357 356 356 358 357 357 358 359 356 349 344 337 323 313 290 264 250 244 239 234 230 230 229 230 230 228 227 225 224 225 224 225 226
1 146 201 240 280 286 280 263 294 326 338 348 347 348 351 354 356 355 354 355 356 355 356 1 359 349 341 338 336 321 303 283 271 259 250 249 242 236 233 234 235 233 232 229 226 228 227 227 227
155 169 216 239 282 282 290 304 41 304 327 337 342 347 350 353 354 354 355 354 352 352 357 0 357 354 351 343 337 336 324 301 284 266 252 251 251 247 245 241 237 235 234 231 230 231 230 230 230
241 228 215 254 250 255 272 288 64 330 336 338 337 342 349 353 355 357 358 357 359 357 354 354 352 354 352 350 350 348 338 325 304 301 281 263 255 249 250 246 241 238 238 236 235 235 234 234 233
Height
1514 1515 1517 1521 1520 1515 1506 1502 1506 1509 1510 1512 1513 1512 1509 1508 1508 1512 1513 1509 1508 1508 1509 1509 1511 1513 1515 1518 1520 1522 1524 1526 1528 1529 1531 1532 1533 1535 1536 1537 1538 1539 1540 1541 1542 1543 1544 1544 1545
1514 1516 1520 1520 1514 1509 1503 1502 1506 1508 1511 1513 1513 1512 1511 1510 1511 1511 1510 1508 1507 1508 1509 1509 1511 1513 1515 1517 1519 1521 1523 1525 1527 1529 1531 1532 1534 1535 1536 1538 1539 1540 1541 1542 1543 1544 1545 1545 1546
1514 1516 1519 1516 1511 1503 1499 1505 1506 1510 1513 1513 1512 1511 1511 1510 1511 1511 1509 1507 1508 1508 1509 1509 1511 1513 1515 1517 1519 1521 1523 1525 1527 1529 1530 1532 1534 1535 1537 1538 1539 1541 1542 1543 1544 1545 1546 1547 1547
1516 1519 1519 1514 1507 1504 1505 1507 1510 1511 1512 1513 1512 1510 1510 1511 1510 1510 1508 1507 1507 1508 1508 1509 1510 1512 1514 1516 1518 1520 1522 1524 1526 1528 1530 1531 1533 1535 1537 1538 1540 1541 1542 1543 1544 1546 1546 1547 1548
1516 1517 1514 1510 1505 1506 1509 1511 1512 1510 1510 1511 1511 1509 1509 1510 1508 1508 1507 1506 1506 1507 1508 1508 1509 1511 1513 1514 1517 1519 1521 1523 1525 1527 1529 1531 1533 1535 1536 1538 1540 1541 1542 1544 1545 1546 1547 1548 1549
1517 1515 1510 1505 1504 1507 1510 1512 1512 1510 1509 1510 1511 1508 1507 1508 1507 1506 1506 1505 1505 1505 1506 1507 1508 1509 1511 1513 1515 1517 1519 1522 1524 1526 1528 1530 1532 1534 1536 1538 1539 1541 1542 1544 1545 1546 1548 1549 1550
1516 1513 1507 1505 1505 1507 1509 1511 1511 1509 1508 1509 1510 1508 1506 1507 1506 1504 1504 1503 1503 1503 1504 1505 1506 1507 1509 1511 1513 1515 1518 1520 1522 1524 1526 1529 1531 1533 1535 1537 1539 1541 1542 1544 1545 1546 1548 1549 1550
1514 1514 1510 1508 1507 1506 1510 1511 1510 1510 1508 1509 1509 1506 1505 1505 1504 1503 1502 1502 1501 1501 1502 1502 1504 1505 1506 1508 1511 1513 1516 1518 1521 1523 1525 1528 1530 1532 1534 1536 1538 1540 1542 1543 1545 1546 1548 1549 1550
1515 1514 1507 1507 1507 1507 1510 1510 1510 1509 1508 1507 1506 1505 1504 1503 1501 1501 1500 1499 1499 1499 1499 1500 1501 1502 1504 1506 1508 1510 1513 1516 1519 1521 1524 1526 1528 1531 1533 1535 1537 1539 1541 1543 1545 1546 1548 1549 1550
1514 1510 1506 1509 1509 1508 1509 1509 1509 1507 1505 1504 1503 1502 1501 1500 1499 1498 1496 1496 1495 1495 1496 1496 1498 1499 1501 1503 1505 1507 1510 1513 1516 1519 1521 1524 1526 1529 1531 1533 1536 1538 1540 1542 1544 1545 1547 1548 1549
1512 1509 1509 1510 1510 1510 1509 1508 1507 1506 1501 1500 1499 1498 1497 1496 1495 1494 1493 1493 1492 1492 1491 1492 1494 1495 1497 1499 1501 1504 1507 1509 1512 1516 1518 1521 1524 1526 1528 1531 1534 1536 1538 1540 1542 1544 1546 1547 1548
1512 1511 1511 1510 1510 1509 1508 1506 1505 1503 1500 1499 1497 1495 1493 1492 1491 1490 1490 1489 1489 1487 1488 1489 1490 1491 1493 1495 1497 1500 1503 1505 1508 1511 1515 1518 1520 1523 1525 1528 1531 1533 1536 1538 1540 1542 1544 1546 1547
1510 1509 1510 1509 1508 1507 1506 1504 1503 1499 1498 1496 1493 1491 1490 1488 1487 1487 1486 1485 1484 1483 1484 1485 1486 1487 1489 1491 1493 1495 1498 1501 1504 1508 1511 1513 1516 1519 1522 1525 1528 1530 1533 1535 1537 1539 1542 1543 1545
1509 1509 1508 1507 1506 1505 1504 1501 1501 1496 1495 1493 1490 1488 1486 1485 1484 1483 1482 1481 1480 1479 1480 1481 1482 1483 1484 1486 1489 1491 1494 1497 1500 1503 1506 1509 1512 1515 1518 1521 1524 1527 1529 1532 1534 1537 1539 1541 1543
1509 1508 1505 1505 1504 1503 1503 1498 1497 1495 1493 1490 1487 1485 1483 1482 1480 1479 1478 1477 1476 1475 1476 1476 1477 1478 1480 1482 1484 1486 1489 1493 1496 1498 1502 1505 1508 1511 1515 1518 1520 1523 1526 1528 1531 1534 1536 1538 1540
1507 1504 1500 1502 1503 1502 1503 1494 1493 1493 1491 1488 1485 1483 1481 1479 1477 1475 1474 1472 1471 1471 1471 1471 1472 1474 1475 1477 1480 1482 1485 1488 1491 1494 1497 1500 1504 1507 1510 1513 1516 1519 1522 1525 1527 1530 1532 1534 1536
1502 1499 1498 1500 1501 1501 1500 1494 1492 1491 1489 1486 1484 1481 1478 1476 1474 1472 1471 1469 1468 1467 1467 1467 1468 1469 1470 1473 1475 1478 1480 1483 1487 1490 1492 1496 1499 1502 1506 1509 1512 1515 1518 1520 1523 1526 1528 1530 1532
1500 1498 1498 1498 1500 1500 1497 1492 1490 1489 1488 1485 1482 1479 1477 1474 1471 1469 1468 1466 1464 1463 1463 1463 1464 1464 1466 1468 1470 1473 1476 1478 1482 1485 1487 1491 1494 1497 1501 1504 1507 1510 1513 1516 1519 1521 1524 1526 1528
1502 1501 1499 1498 1500 1499 1494 1490 1487 1487 1486 1483 1481 1478 1475 1472 1469 1467 1465 1463 1461 1460 1459 1460 1460 1461 1462 1464 1466 1468 1470 1473 1477 1479 1482 1485 1488 1492 1496 1499 1502 1505 1508 1511 1514 1517 1519 1522 1524
1504 1502 1499 1498 1499 1497 1492 1487 1485 1485 1485 1483 1480 1476 1473 1470 1467 1464 1462 1460 1459 1457 1457 1457 1457 1458 1459 1460 1462 1464 1466 1469 1472 1474 1477 1480 1483 1487 1490 1494 1496 1499 1502 1506 1509 1512 1514 1516 1519
1502 1500 1498 1498 1497 1495 1492 1482 1481 1482 1483 1481 1479 1476 1473 1469 1466 1463 1460 1458 1456 1455 1454 1454 1454 1455 1455 1457 1458 1460 1463 1465 1467 1470 1473 1475 1478 1481 1485 1488 1491 1494 1497 1499 1503 1505 1508 1511 1513
1499 1499 1499 1499 1496 1491 1493 1482 1477 1479 1480 1479 1477 1475 1472 1469 1466 1462 1459 1457 1455 1453 1452 1451 1451 1451 1452 1453 1454 1456 1457 1459 1462 1465 1468 1471 1473 1476 1479 1483 1485 1488 1491 1494 1496 1499 1503 1505 1507
1499 1500 1500 1499 1497 1494 1489 1487 1475 1479 1478 1478 1477 1475 1472 1469 1465 1462 1459 1456 1453 1452 1450 1449 1448 1448 1448 1449 1450 1452 1453 1456 1459 1461 1463 1466 1469 1471 1474 1477 1480 1483 1485 1488 1491 1493 1496 1499 1501
1501 1501 1499 1498 1495 1490 1487 1486 1475 1477 1479 1478 1477 1474 1472 1468 1465 1461 1458 1455 1452 1450 1448 1447 1446 1445 1445 1445 1446 1448 1449 1452 1454 1457 1458 1460 1463 1466 1468 1471 1474 1477 1479 1481 1485 1487 1489 1492 1494
1501 1498 1492 1488 1485 1480 1487 1485 1477 1478 1480 1480 1477 1474 1471 1468 1464 1461 1457 1454 1452 1450 1448 1446 1444 1443 1442 1442 1443 1443 1445 1448 1450 1452 1453 1455 1457 1460 1462 1465 1468 1470 1473 1475 1478 1480 1482 1485 1487
1499 1498 1492 1485 1478 1476 1485 1480 1475 1480 1481 1480 1478 1475 1471 1468 1464 1461 1458 1455 1452 1449 1447 1445 1443 1441 1440 1440 1440 1440 1442 1443 1445 1447 1448 1450 1452 1455 1457 1459 1462 1464 1466 1469 1471 1474 1476 1478 1480
1498 1497 1499 1496 1494 1486 1474 1475 1474 1479 1479 1478 1477 1474 1472 1468 1465 1461 1458 1455 1452 1449 1446 1443 1441 1440 1438 1437 1437 1437 1438 1439 1441 1442 1444 1446 1448 1450 1452 1454 1456 1458 1460 1462 1465 1467 1469 1471 1473
1501 1500 1499 1496 1488 1476 1470 1470 1470 1476 1477 1477 1476 1474 1472 1469 1466 1462 1458 1455 1452 1449 1446 1443 1441 1439 1438 1436 1435 1435 1435 1436 1437 1437 1439 1441 1443 1445 1447 1449 1450 1452 1454 1455 1457 1459 1462 1464 1465
1501 1501 1499 1496 1493 1482 1472 1469 1474 1476 1477 1477 1476 1475 1473 1470 1467 1463 1459 1455 1452 1449 1446 1443 1441 1438 1437 1435 1434 1433 1433 1433 1433 1433 1435 1436 1438 1440 1441 1443 1444 1446 1447 1449 1450 1452 1454 1456 1457
1500 1498 1498 1494 1492 1491 1480 1476 1477 1477 1478 1478 1477 1476 1474 1471 1467 1464 1460 1456 1452 1449 1446 1443 1440 1438 1436 1434 1433 1432 1431 1430 1429 1430 1431 1433 1434 1435 1436 1437 1439 1440 1441 1442 1443 1445 1446 1448 1449